Weather in Suttsu

Japan     42°47′30″N   140°13′35″E
temp.,
°C
wind,
m/s
gust,
m/s
humid.,
%
clouds,
%
prec.,
mm/h
press.,
hPa
HPBL,
m
25 january, mon
mon2500:00−4w23760 0.0 1025184
03:00−2w24820 0.0 1025242
06:00−1wnw23838 0.0 1026264
09:00+2wnw24795 0.0 1027443
12:00+2nnw34750 0.0 1027857
15:00+1nnw45740 0.0 1027665
18:00−2n24856 0.0 1029241
21:00−5ene12889 0.0 1029141
26 january, tue
tue2600:00−6e22860 0.0 102998
03:00−5se35919 0.0 1028136
06:00−3se359293 0.0 1028156
09:000se599391 0.1 1026485
12:00+1se51094100 0.4 1024593
15:00+2se51192100 0.4 1022690
18:00+1se61193100 0.1 1021518
21:00+2se61291100 0.1 1018696
27 january, wed
wed2700:00+3se61292100 0.1 1015615
03:00+2sse51090100 0.1 1012458
06:00+2se5109598 1.2 1008353
09:00+3w8139199 3.8 1010995
12:00−1wnw10148298 0.4 10131375
15:00−4wnw11166786 0.5 10161740
18:00−5wnw10137872 0.1 10181484
21:00−6wnw10147686 0.4 10201499
28 january, thu
thu2800:00−7wnw81184100 0.5 10211419
03:00−6wnw71086100 1.4 10221276
06:00−7wnw5886100 0.6 1022962
09:00−6wnw4673100 1.0 10221140
12:00−5nw3375100 0.2 1020886
15:00−5nne2272100 0.2 1018716
18:00−7ese2382100 0.0 1016221
21:00−7ese3586100 0.0 1012232
29 january, fri
fri2900:00−7se61277100 0.0 1007728
03:00−3se142290100 1.9 10001288
06:00−1se172690100 2.4 9931492
09:000se152692100 11.8 9921763
12:000se4990100 12.0 989777
15:00−1sse51077100 16.3 987964
18:00−3se6118880 0.4 985906
21:00−6e348472 0.5 984177